Page, AZ

12:50 PM MDT on July 27, 2017 (GMT -0600)
Page Municipal

Weather History for KPGA - April, 2013

Change the Weather History Date:

Friday, April 19, 2013

  Actual Average Record
Temperature  
Mean Temperature 52 °F -  
Max Temperature 66 °F 67 °F 90 °F (1989)
Min Temperature 37 °F 42 °F 29 °F (1968)
Degree Days  
Heating Degree Days 14    
Growing Degree Days 2 (Base 50)    
Moisture  
Dew Point 13 °F    
Average Humidity 20    
Maximum Humidity 36    
Minimum Humidity 5    
Precipitation  
Precipitation 0.00 in - - ()
Sea Level Pressure  
Sea Level Pressure 30.08 in    
Wind  
Wind Speed 4 mph (NNW)    
Max Wind Speed 10 mph    
Max Gust Speed -    
Visibility 10 miles    
Events      
Averages and records for this station are not official NWS values.
T = Trace of Precipitation, MM = Missing Value Source: NWS Daily Summary

Daily Weather History Graph

Daily Weather History Graph

Search for Another Location

Airport or City:

Trip Planner

Search our weather history database for the weather conditions in past years. The results will help you decide how hot, cold, wet, or windy it might be!

Date:

Astronomy

Apr. 19, 2013 Rise Set
Actual Time 5:45 AM MST 7:04 PM MST
Civil Twilight 5:18 AM MST 7:31 PM MST
Nautical Twilight 4:46 AM MST 8:03 PM MST
Astronomical Twilight 4:12 AM MST 8:37 PM MST
Moon 1:01 PM MST (4/19) 1:54 AM MST (4/19)
Length of Visible Light 14h 12m
Length of Day
13h 18m
Waxing Gibbous, 62% of the Moon is Illuminated
Apr 19
Waxing Gibbous
Apr 25
Full
May 2
Last Quarter
May 9
New
May 17
First Quarter

Hourly Weather History & Observations

Time (MST) Temp. Windchill Dew Point Humidity Pressure Visibility Wind Dir Wind Speed Gust Speed Precip Events Conditions
12:53 AM 44.1 °F 42.5 °F 12.9 °F 28% 30.23 in 10.0 mi West 3.5 mph - N/A   Clear
1:53 AM 43.0 °F - 12.9 °F 30% 30.22 in 10.0 mi Calm Calm - N/A   Clear
2:53 AM 41.0 °F - 10.9 °F 29% 30.21 in 10.0 mi Calm Calm - N/A   Clear
3:53 AM 39.9 °F 37.8 °F 12.9 °F 33% 30.22 in 10.0 mi SSW 3.5 mph - N/A   Clear
4:53 AM 37.0 °F 34.5 °F 12.0 °F 36% 30.22 in 10.0 mi SE 3.5 mph - N/A   Clear
5:53 AM 37.9 °F 35.5 °F 12.9 °F 36% 30.24 in 10.0 mi South 3.5 mph - N/A   Clear
6:53 AM 44.1 °F - 12.0 °F 27% 30.23 in 7.0 mi Calm Calm - N/A   Clear
7:53 AM 46.0 °F - 10.9 °F 24% 30.23 in 10.0 mi Calm Calm - N/A   Clear
8:53 AM 48.0 °F - 14.0 °F 26% 30.23 in 10.0 mi NW 3.5 mph - N/A   Clear
9:53 AM 50.0 °F - 12.9 °F 23% 30.21 in - NNW 4.6 mph - N/A   Clear
10:53 AM 55.0 °F - 12.9 °F 19% 30.18 in 10.0 mi ENE 4.6 mph - N/A   Clear
11:53 AM 55.9 °F - 12.0 °F 18% 30.14 in 10.0 mi North 6.9 mph - N/A   Clear
12:53 PM 60.1 °F - 12.0 °F 15% 30.10 in 10.0 mi NE 3.5 mph - N/A   Clear
1:53 PM 63.0 °F - 12.0 °F 14% 30.06 in 10.0 mi NNE 10.4 mph - N/A   Clear
2:53 PM 64.9 °F - 10.0 °F 12% 30.01 in 10.0 mi Variable 5.8 mph - N/A   Clear
3:53 PM 64.9 °F - 10.0 °F 12% 29.96 in 10.0 mi NE 9.2 mph - N/A   Clear
4:53 PM 66.0 °F - 10.9 °F 12% 29.93 in 10.0 mi NE 6.9 mph - N/A   Clear
5:53 PM 66.0 °F - 12.0 °F 12% 29.91 in 10.0 mi NE 5.8 mph - N/A   Clear
6:53 PM 64.0 °F - 12.0 °F 13% 29.89 in 10.0 mi Variable 4.6 mph - N/A   Clear
7:53 PM 63.0 °F - 14.0 °F 15% 29.89 in 10.0 mi WSW 5.8 mph - N/A   Clear
8:53 PM 63.0 °F - 16.0 °F 16% 29.91 in 10.0 mi WSW 3.5 mph - N/A   Partly Cloudy
9:53 PM 60.1 °F - 16.0 °F 18% 29.90 in 10.0 mi WSW 4.6 mph - N/A   Partly Cloudy
10:53 PM 57.9 °F - 16.0 °F 19% 29.89 in 10.0 mi WNW 5.8 mph - N/A   Clear
11:53 PM 55.9 °F - 16.0 °F 21% 29.90 in 10.0 mi Calm Calm - N/A   Clear